Home   Weather   Busan   Past weeks

Flag for South Korea Past Weather in Busan, South Korea — Yesterday and Last 2 Weeks

Now
72 °F

Sunny.


Feels Like: 76 °F
Forecast: 61 / 73 °F
Wind: 20 mph from South

Location: Pusan / Kimhae International Airport

Current Time: Apr 29, 2017 at 2:37:42 pm

Latest Report: Apr 29, 2017 at 2:00 pm


Visibility: 10 mi

Pressure: 29.74 "Hg

Humidity: 29%

Dew Point: 37 °F

Location of BusanLocation

Past Weather in Busan — Graph

°F

Busan Temperature Yesterday

Maximum temperature yesterday: 70 °F (at 5:00 pm)
Minimum temperature yesterday: 46 °F (at 4:00 am)
Average temperature yesterday: 60 °F

High & Low Weather Summary for the Past Weeks

 TemperatureHumidityPressure
High77 °F (Apr 16, 12:00 pm)100% (Apr 16, 5:30 am)30.15 "Hg (Apr 16, 5:30 am)
Low46 °F (Apr 23, 5:00 am)28% (Apr 24, 12:41 pm)29.33 "Hg (Apr 17, 4:00 pm)
Average61 °F69%29.86 "Hg
* Reported Apr 14 1:00 pm — Apr 29 1:00 pm, Busan, Weather by CustomWeather, © 2017

Note: Actual official high and low records may vary slightly from our data, if they occured in-between our weather recording intervals... More about our weather records

Advertising

Busan Weather History for the Previous 24 Hours

Scroll right to see more
 ConditionsComfort  
Time TempWeatherWind HumidityBarometerVisibility
1:00 pm
Sat, Apr 29
72 °FSunny.13 mph36%29.77 "Hg10 mi
12:00 pm73 °FSunny.6 mph36%29.77 "Hg10 mi
11:00 am72 °FSunny.6 mph38%29.77 "Hg10 mi
10:00 am70 °FSunny.1 mph35%29.77 "Hg10 mi
9:00 am64 °FSunny.1 mph43%29.77 "Hg10 mi
8:00 am61 °FSunny.1 mph59%29.77 "Hg10 mi
7:00 am54 °FSunny.2 mph72%29.74 "Hg10 mi
6:00 am52 °FSunny.1 mph62%29.74 "Hg10 mi
5:00 am54 °FClear.1 mph63%29.71 "Hg10 mi
4:00 am54 °FClear.1 mph63%29.71 "Hg10 mi
3:00 am55 °FClear.1 mph55%29.68 "Hg10 mi
2:00 am55 °FClear.3 mph63%29.68 "Hg10 mi
1:00 am59 °FClear.5 mph51%29.68 "Hg10 mi
12:00 am61 °FClear.5 mph52%29.68 "Hg10 mi
11:00 pm
Fri, Apr 28
61 °FClear.10 mph52%29.68 "Hg10 mi
10:00 pm63 °FClear.14 mph49%29.68 "Hg10 mi
9:00 pm64 °FClear.14 mph46%29.65 "Hg10 mi
8:00 pm64 °FClear.16 mph46%29.62 "Hg10 mi
7:00 pm66 °FSunny.13 mph43%29.62 "Hg10 mi
6:00 pm66 °FSunny.18 mph43%29.62 "Hg10 mi
5:00 pm70 °FSunny.21 mph38%29.62 "Hg10 mi
4:00 pm68 °FSunny.21 mph60%29.65 "Hg10 mi
3:00 pm68 °FSunny.20 mph49%29.65 "Hg10 mi
2:00 pm66 °FSunny.20 mph56%29.68 "Hg10 mi
Weather by CustomWeather, © 2017

See weather overviewHow to use our weather pages